Regional Weather Roundup
Issued by NWS Newport/Morehead, NC

Current Version | Previous Version | Text Only | Print | Product List | Glossary On
Versions: 1 2 3 4 5 6 7 8 9 10 11 12 13 14 15 16 17 18 19 20 21 22 23 24 25 26 27 28 29 30 31 32 33 34 35 36 37 38 39 40 41 42 43 44 45 46 47 48 49 50
000
ASUS42 KMHX 221424
RWRMHX
WEATHER ROUNDUP FOR EASTERN NORTH CAROLINA
NATIONAL WEATHER SERVICE NEWPORT/MOREHEAD CITY NC
1000 AM EDT FRI MAY 22 2015

NOTE: "FAIR" INDICATES FEW OR NO CLOUDS BELOW 12,000 FEET
WITH NO SIGNIFICANT WEATHER AND/OR OBSTRUCTIONS TO VISIBILITY

NCZ015>017-031-032-045>047-102-103-221500-
NORTH COAST

CITY           SKY/WX    TMP DP  RH WIND       PRES   REMARKS
EDENTON        SUNNY     64  49  59 N14       30.15R
ELIZABETH CITY MOSUNNY   63  50  62 N10       30.13R
KITTY HAWK     SUNNY     62  50  66 N8        30.11R
MANTEO         MOSUNNY   63  50  64 N14G20    30.13R

$$

NCZ045>047-081-094-103-104-221500-
CENTRAL COAST

CITY           SKY/WX    TMP DP  RH WIND       PRES   REMARKS
FRISCO         PTSUNNY   61  51  70 VRB6      30.13R
SWANQUARTER      N/A     64 N/A N/A VRB3G16   30.12R

$$

NCZ095-097-098-100-101-221500-
SOUTHERN COAST

CITY           SKY/WX    TMP DP  RH WIND       PRES   REMARKS
BEAUFORT       MOSUNNY   65  52  62 N15G22    30.14R
CEDAR ISLAND     N/A     64 N/A N/A N8G22     30.18S
JACKSONVILLE   PTSUNNY   63  52  67 N10       30.15R
PINEY ISLAND   PTSUNNY  N/A N/A N/A N15G23    30.15R
WILMINGTON     CLOUDY    66  54  65 NE14      30.15R


$$

NCZ011>013-027>030-043-044-078>080-089-090>093-098-221500-
COASTAL PLAIN

CITY           SKY/WX    TMP DP  RH WIND       PRES   REMARKS
AHOSKIE        SUNNY     62  44  52 N8        30.16R
CLINTON        SUNNY     64  51  61 N6        30.17S
ELIZABETHTOWN  MOSUNNY   64  50  60 CALM      30.17S
GOLDSBORO      MOSUNNY   64  48  54 N7G16     30.15R
GREENVILLE     MOSUNNY   63  50  63 NE9       30.17S
HAVELOCK       MOSUNNY   65  50  58 N16G22    30.16R
KENANSVILLE    PTSUNNY   62  50  65 N9        30.18R
KINSTON        MOSUNNY   64  50  59 NE9       30.17R
NEW BERN       MOSUNNY   65  51  60 N12       30.17R
RICHLANDS      PTSUNNY   63  48  59 N9        30.17R
ROCKY MOUNT    SUNNY     64  46  52 N12G22    30.17R
WASHINGTON       N/A    N/A N/A N/A N10       30.16R
WHITEVILLE     PTSUNNY   64  50  60 NE9       30.16S

$$

AMZ130-135-150-152-154-156-158-170-250-252-270-ANZ085-086-088-633-658-670-221500-
MARINE OBSERVATIONS

STATION/POSITION TIME  TEMP    WIND        PRES    WAVE   SWELL
                       AIR SEA DIR/SP/G            HT/PER HT/PER
                 (UTC) (F)     (DEG/KT/KT) (MB)    (FT/S) (FT/S)
CHESAPEAKE LIGHT 1400   60     340/ 16/ 18 1019.9
64 E VA BEACH    1350   58 60  330/ 16/ 17 1018.4    6/ 6   3/ 8
DUCK             1400   59 66  350/ 12/ 14 1018.9
2 E DUCK         1311      64                N/A     4/ 7
OREGON INLET     1400   61 68  340/ 12/ 16 1019.9
13E OREGON INLT  1400      62                N/A     5/ 7
HATTERAS CG      1400   62 71  350/ 14/ 17 1019.7
DIAMOND BUOY     1350   63 76   10/ 14/ 17 1019.7    5/ 8   3/ 8
CAPE LOOKOUT     1400   63      10/ 13/ 18 1020.3
BEAUFORT LAB     1400   63 73   10/  9/ 17 1019.9
27 SE WRIGHTSVLE 1400   62 77   40/ 16/ 17   N/A
5 SE WRIGHTSVLE  1308   64 76   30/ 16/ 21 1020.3
225 S CAPE HAT   1350   74 75   20/ 10/ 12 1017.4    5/ 6   3/ 6
41 SE CHARLESTON 1350   69 76   30/ 21/ 25 1018.6    6/ 6   2/15

$$



USA.gov is the U.S. government's official web portal to all federal, state and local government web resources and services.